STARLINK-35485 (66251 NORAD) Tracking and Keplerian Element Data

This shows tracking and keplerian element data for the satellite.

Feedback or suggestion? Click here.




ElementValue
Catalog66251
NameSTARLINK-35485
Epoch Orbit884
Epoch Day354.14537901
Epoch Year2025
RAAN294.3844
Inclination53.1609
Eccentricity0.0001216
Argument of Perigee69.6927
Mean Anonmoly290.4209
Mean Motion15.39619696
Decay Rate0.00028677
L11 66251U 25245T 25354.14537901 .00028677 00000+0 72423-3 0 9997
L22 66251 53.1609 294.3844 0001216 69.6927 290.4209 15.39619696 8840



Live tracking and technical data element details for STARLINK-35485 (NORAD 66251). STARLINK-35485 can be tracked NOW for your location showing map with azimuth and elevation plus other details from your city location.







IsCatalogInMostPopularTable: catalog: 66251, numindb: 14
Update: records affected: 1



GetName: 66251 STARLINK-35485

Hit Count: updated at: Thu, 21 May 2026 10:43:55 GMT